Weather History for St. Joseph, MO

Change the Weather History Date:

Thursday, November 8, 2012

  Actual Average Record
Temperature  
Mean Temperature 52 °F 46 °F  
Max Temperature 69 °F 57 °F 82 °F (1980)
Min Temperature 35 °F 34 °F -5 °F (1991)
Degree Days  
Heating Degree Days 13 19  
Month to date heating degree days 136 143  
Since 1 July heating degree days 637 562  
Cooling Degree Days 0 0  
Month to date cooling degree days 0 0  
Year to date cooling degree days 1560 1220  
Growing Degree Days 2 (Base 50)    
Moisture  
Dew Point 36 °F    
Average Humidity 57    
Maximum Humidity 82    
Minimum Humidity 31    
Precipitation  
Precipitation 0.00 in 0.06 in 2.06 in (1916)
Month to date precipitation 0.19 0.60  
Year to date precipitation 20.71 33.13  
Sea Level Pressure  
Sea Level Pressure 29.98 in    
Wind  
Wind Speed 10 mph (SSE)    
Max Wind Speed 22 mph    
Max Gust Speed 25 mph    
Visibility 10 miles    
Events      
T = Trace of Precipitation, MM = Missing Value Source: NWS Daily Summary

Daily Weather History Graph

Daily Weather History Graph

Search for Another Location

Airport:

Trip Planner

Search our weather history database for the weather conditions in past years. The results will help you decide how hot, cold, wet, or windy it might be!

Date:

Astronomy

Nov. 08, 2012 Rise Set
Actual Time 6:56 AM CST 5:09 PM CST
Civil Twilight 6:28 AM CST 5:37 PM CST
Nautical Twilight 5:56 AM CST 6:10 PM CST
Astronomical Twilight 5:24 AM CST 6:41 PM CST
Moon 12:53 AM CST (11/8) 1:50 PM CST (11/8)
Length of Visible Light 11h 09m
Length of Day
10h 12m
Waning Crescent, 32% of the Moon is Illuminated
Nov 8
Waning Crescent
Nov 13
New
Nov 20
First Quarter
Nov 28
Full
Dec 6
Last Quarter

Hourly Weather History & Observations

Time (CST) Temp. Windchill Dew Point Humidity Pressure Visibility Wind Dir Wind Speed Gust Speed Precip Events Conditions
12:53 AM 39.0 °F 34.8 °F 32.0 °F 76% 30.12 in 10.0 mi South 5.8 mph - N/A   Clear
1:53 AM 37.9 °F 33.5 °F 32.0 °F 79% 30.10 in 10.0 mi South 5.8 mph - N/A   Clear
2:53 AM 39.0 °F 32.8 °F 32.0 °F 76% 30.09 in 10.0 mi South 9.2 mph - N/A   Clear
3:53 AM 37.9 °F 32.1 °F 32.0 °F 79% 30.08 in 10.0 mi South 8.1 mph - N/A   Clear
4:53 AM 37.0 °F 31.6 °F 30.9 °F 79% 30.07 in 10.0 mi SSE 6.9 mph - N/A   Clear
5:53 AM 36.0 °F 33.3 °F 30.9 °F 82% 30.07 in 10.0 mi SE 3.5 mph - N/A   Clear
6:53 AM 37.9 °F 31.5 °F 32.0 °F 79% 30.07 in 10.0 mi South 9.2 mph - N/A   Clear
7:53 AM 42.1 °F 36.6 °F 33.1 °F 70% 30.07 in 10.0 mi South 9.2 mph - N/A   Clear
8:53 AM 46.0 °F 40.6 °F 34.0 °F 63% 30.06 in 10.0 mi SSE 11.5 mph - N/A   Clear
9:53 AM 53.1 °F - 34.0 °F 48% 30.04 in 10.0 mi SSE 13.8 mph - N/A   Clear
10:53 AM 60.1 °F - 33.1 °F 36% 30.01 in 10.0 mi SSE 18.4 mph 23.0 mph N/A   Clear
11:53 AM 64.0 °F - 34.0 °F 33% 29.96 in 10.0 mi SSE 17.3 mph - N/A   Clear
12:53 PM 66.9 °F - 35.1 °F 31% 29.93 in 10.0 mi South 18.4 mph - N/A   Clear
1:53 PM 69.1 °F - 37.0 °F 31% 29.90 in 10.0 mi South 16.1 mph - N/A   Clear
2:53 PM 68.0 °F - 39.0 °F 35% 29.88 in 10.0 mi South 18.4 mph - N/A   Clear
3:53 PM 66.9 °F - 39.0 °F 36% 29.88 in 10.0 mi SSE 12.7 mph 21.9 mph N/A   Clear
4:53 PM 64.0 °F - 39.0 °F 40% 29.89 in 10.0 mi SE 11.5 mph - N/A   Clear
5:53 PM 59.0 °F - 39.9 °F 49% 29.90 in 10.0 mi SE 6.9 mph - N/A   Clear
6:53 PM 55.0 °F - 39.9 °F 57% 29.92 in 10.0 mi SE 5.8 mph - N/A   Clear
7:53 PM 53.1 °F - 39.9 °F 61% 29.92 in 10.0 mi SSE 6.9 mph - N/A   Clear
8:53 PM 54.0 °F - 39.9 °F 59% 29.91 in 10.0 mi South 4.6 mph - N/A   Clear
9:53 PM 51.1 °F - 39.9 °F 66% 29.90 in 10.0 mi SE 5.8 mph - N/A   Clear
10:53 PM 52.0 °F - 39.9 °F 63% 29.89 in 10.0 mi SSE 6.9 mph - N/A   Partly Cloudy
11:53 PM 53.1 °F - 41.0 °F 64% 29.89 in 10.0 mi South 6.9 mph - N/A   Mostly Cloudy